| time (UTC) | temp F | wind direction | speed MPH | gust MPH | rain 1hr in | rain 24hr in | rain mn in | humidity % | barometer mb |
| 20260902095504 | 61 | 178 | 0.0 | 1.0 | 0.09 | 0.16 | 0.16 | 92 | 1016.7 |
| 20260902095003 | 61 | 178 | 1.0 | 2.0 | 0.09 | 0.15 | 0.15 | 92 | 1016.8 |
| 20260902094503 | 61 | 178 | 0.0 | 1.0 | 0.08 | 0.14 | 0.14 | 92 | 1016.8 |
| 20260902094004 | 61 | 177 | 2.0 | 3.0 | 0.09 | 0.14 | 0.14 | 92 | 1016.7 |
| 20260902093004 | 60 | 175 | 0.0 | 7.0 | 0.08 | 0.13 | 0.13 | 92 | 1016.8 |
| 20260902092504 | 60 | 186 | 2.0 | 7.0 | 0.08 | 0.12 | 0.12 | 92 | 1016.8 |
| 20260902092003 | 60 | 191 | 3.0 | 9.0 | 0.08 | 0.11 | 0.11 | 92 | 1016.9 |
| 20260902091504 | 60 | 133 | 4.0 | 8.0 | 0.07 | 0.10 | 0.10 | 92 | 1016.9 |
| 20260902091003 | 60 | 162 | 3.0 | 8.0 | 0.07 | 0.09 | 0.09 | 92 | 1017.0 |
| 20260902090504 | 60 | 178 | 3.0 | 8.0 | 0.06 | 0.08 | 0.08 | 92 | 1017.0 |
| 20260902090004 | 60 | 162 | 4.0 | 9.0 | 0.06 | 0.07 | 0.07 | 91 | 1017.0 |
| 20260902085504 | 60 | 207 | 4.0 | 10.0 | 0.07 | 0.07 | 0.07 | 91 | 1017.0 |
| 20260902085003 | 60 | 187 | 7.0 | 13.0 | 0.06 | 0.06 | 0.06 | 91 | 1017.1 |
| 20260902084004 | 60 | 209 | 6.0 | 13.0 | 0.06 | 0.06 | 0.06 | 91 | 1017.1 |
| 20260902083503 | 61 | 157 | 8.0 | 14.0 | 0.06 | 0.06 | 0.06 | 91 | 1017.0 |
| 20260902083004 | 61 | 179 | 6.0 | 10.0 | 0.05 | 0.05 | 0.05 | 91 | 1017.2 |
| 20260902082503 | 61 | 216 | 6.0 | 10.0 | 0.04 | 0.04 | 0.04 | 90 | 1017.3 |
| 20260902082004 | 61 | 183 | 7.0 | 12.0 | 0.03 | 0.03 | 0.03 | 90 | 1017.3 |
| 20260902081004 | 61 | 205 | 6.0 | 12.0 | 0.02 | 0.02 | 0.02 | 90 | 1017.2 |
| 20260902080504 | 61 | 229 | 5.0 | 8.0 | 0.02 | 0.02 | 0.02 | 90 | 1017.2 |
| 20260902075503 | 61 | 195 | 3.0 | 6.0 | 0.00 | 0.00 | 0.00 | 89 | 1017.2 |
| 20260902075003 | 61 | 188 | 2.0 | 7.0 | 0.00 | 0.00 | 0.00 | 89 | 1017.2 |
| 20260902074003 | 61 | 180 | 3.0 | 6.0 | 0.00 | 0.00 | 0.00 | 90 | 1017.2 |
| 20260902073504 | 61 | 169 | 3.0 | 5.0 | 0.00 | 0.00 | 0.00 | 90 | 1017.2 |
| 20260902073003 | 60 | 198 | 1.0 | 3.0 | 0.00 | 0.00 | 0.00 | 90 | 1017.2 |
| 20260902072503 | 60 | 199 | 3.0 | 3.0 | 0.00 | 0.00 | 0.00 | 90 | 1017.2 |
| 20260902072003 | 60 | 200 | 2.0 | 5.0 | 0.00 | 0.00 | 0.00 | 90 | 1017.3 |
| 20260902071504 | 60 | 199 | 1.0 | 6.0 | 0.00 | 0.00 | 0.00 | 90 | 1017.2 |
| 20260902071004 | 60 | 206 | 2.0 | 8.0 | 0.00 | 0.00 | 0.00 | 90 | 1017.2 |
| 20260902070504 | 60 | 189 | 5.0 | 15.0 | 0.00 | 0.00 | 0.00 | 90 | 1017.3 |
| 20260902070005 | 60 | 205 | 3.0 | 6.0 | 0.00 | 0.00 | 0.00 | 90 | 1017.3 |
| 20260902065504 | 60 | 194 | 3.0 | 6.0 | 0.00 | 0.00 | 0.00 | 91 | 1017.3 |
| 20260902065004 | 60 | 181 | 1.0 | 3.0 | 0.00 | 0.00 | 0.00 | 91 | 1017.2 |
| 20260902064004 | 60 | 219 | 0.0 | 0.0 | 0.00 | 0.00 | 0.00 | 91 | 1017.3 |
| 20260902063004 | 60 | 222 | 0.0 | 0.0 | 0.00 | 0.00 | 0.00 | 91 | 1017.2 |
| 20260902062504 | 59 | 222 | 0.0 | 0.0 | 0.00 | 0.00 | 0.00 | 91 | 1017.2 |
| 20260902062004 | 59 | 222 | 0.0 | 2.0 | 0.00 | 0.00 | 0.00 | 91 | 1017.2 |
| 20260902060504 | 59 | 224 | 0.0 | 0.0 | 0.00 | 0.00 | 0.00 | 91 | 1017.1 |
| 20260902055503 | 59 | 231 | 0.0 | 0.0 | 0.00 | 0.00 | 0.00 | 91 | 1017.2 |
| 20260902055003 | 59 | 231 | 0.0 | 0.0 | 0.00 | 0.00 | 0.00 | 91 | 1017.2 |
| 20260902054503 | 59 | 232 | 0.0 | 0.0 | 0.00 | 0.00 | 0.00 | 91 | 1017.0 |
| 20260902054004 | 59 | 232 | 0.0 | 0.0 | 0.00 | 0.00 | 0.00 | 91 | 1017.1 |
| 20260902053003 | 59 | 232 | 0.0 | 0.0 | 0.00 | 0.00 | 0.00 | 91 | 1017.2 |
| 20260902052003 | 59 | 232 | 0.0 | 0.0 | 0.00 | 0.00 | 0.00 | 91 | 1017.2 |
| 20260902051503 | 59 | 232 | 0.0 | 0.0 | 0.00 | 0.00 | 0.00 | 91 | 1017.4 |
| 20260902051003 | 59 | 232 | 0.0 | 0.0 | 0.00 | 0.00 | 0.00 | 91 | 1017.5 |
| 20260902050504 | 59 | 232 | 0.0 | 0.0 | 0.00 | 0.00 | 0.00 | 91 | 1017.4 |
| 20260902050005 | 59 | 232 | 0.0 | 0.0 | 0.00 | 0.00 | 0.00 | 90 | 1017.3 |
| 20260902045504 | 59 | 232 | 0.0 | 0.0 | 0.00 | 0.00 | 0.00 | 90 | 1017.3 |
| 20260902045004 | 59 | 232 | 0.0 | 0.0 | 0.00 | 0.00 | 0.00 | 90 | 1017.2 |
| 20260902044504 | 59 | 232 | 0.0 | 0.0 | 0.00 | 0.00 | 0.00 | 90 | 1017.2 |
| 20260902044003 | 59 | 232 | 0.0 | 0.0 | 0.00 | 0.00 | 0.00 | 90 | 1017.2 |
| 20260902043504 | 59 | 232 | 0.0 | 0.0 | 0.00 | 0.00 | 0.00 | 90 | 1017.3 |
| 20260902043003 | 59 | 232 | 0.0 | 0.0 | 0.00 | 0.00 | 0.00 | 90 | 1017.2 |
| 20260902042504 | 59 | 232 | 0.0 | 0.0 | 0.00 | 0.00 | 0.00 | 90 | 1017.3 |
| 20260902041504 | 59 | 232 | 0.0 | 0.0 | 0.00 | 0.00 | 0.00 | 90 | 1017.5 |
| 20260902041003 | 59 | 232 | 0.0 | 0.0 | 0.00 | 0.00 | 0.00 | 90 | 1017.6 |
| 20260902040503 | 59 | 232 | 0.0 | 0.0 | 0.00 | 0.00 | 0.00 | 90 | 1017.6 |
| 20260902040004 | 59 | 232 | 0.0 | 0.0 | 0.00 | 0.00 | 0.00 | 90 | 1017.6 |
| 20260902035504 | 60 | 232 | 0.0 | 0.0 | 0.00 | 0.00 | 0.00 | 90 | 1017.6 |
| 20260902035004 | 60 | 232 | 1.0 | 3.0 | 0.00 | 0.00 | 0.00 | 89 | 1017.6 |
| 20260902034504 | 60 | 229 | 0.0 | 0.0 | 0.00 | 0.00 | 0.00 | 89 | 1017.6 |
| 20260902034003 | 60 | 228 | 0.0 | 0.0 | 0.00 | 0.00 | 0.00 | 89 | 1017.5 |
| 20260902033503 | 60 | 228 | 0.0 | 1.0 | 0.00 | 0.00 | 0.00 | 89 | 1017.6 |
| 20260902033004 | 60 | 228 | 0.0 | 1.0 | 0.00 | 0.00 | 0.00 | 89 | 1017.8 |
| 20260902032504 | 60 | 228 | 1.0 | 3.0 | 0.00 | 0.00 | 0.00 | 89 | 1017.9 |
| 20260902032004 | 60 | 228 | 0.0 | 1.0 | 0.00 | 0.00 | 0.00 | 89 | 1017.9 |
| 20260902031504 | 60 | 228 | 0.0 | 0.0 | 0.00 | 0.00 | 0.00 | 89 | 1017.8 |
| 20260902031004 | 60 | 228 | 0.0 | 0.0 | 0.00 | 0.00 | 0.00 | 89 | 1017.8 |
| 20260902030503 | 60 | 228 | 0.0 | 0.0 | 0.00 | 0.00 | 0.00 | 89 | 1017.9 |
| 20260902030004 | 60 | 228 | 0.0 | 1.0 | 0.00 | 0.00 | 0.00 | 89 | 1018.0 |
| 20260902025504 | 60 | 228 | 1.0 | 3.0 | 0.00 | 0.00 | 0.00 | 89 | 1018.0 |
| 20260902025004 | 60 | 229 | 2.0 | 3.0 | 0.00 | 0.00 | 0.00 | 89 | 1018.1 |
| 20260902024503 | 60 | 229 | 0.0 | 1.0 | 0.00 | 0.00 | 0.00 | 89 | 1018.2 |
| 20260902024004 | 60 | 229 | 0.0 | 1.0 | 0.00 | 0.00 | 0.00 | 89 | 1018.1 |
| 20260902023503 | 60 | 229 | 0.0 | 2.0 | 0.00 | 0.00 | 0.00 | 89 | 1018.2 |
| 20260902023004 | 60 | 229 | 2.0 | 3.0 | 0.00 | 0.00 | 0.00 | 89 | 1018.3 |
| 20260902022503 | 60 | 229 | 2.0 | 3.0 | 0.00 | 0.00 | 0.00 | 89 | 1018.2 |
| 20260902022004 | 60 | 229 | 2.0 | 3.0 | 0.00 | 0.00 | 0.00 | 89 | 1018.3 |
| 20260902020503 | 60 | 233 | 1.0 | 3.0 | 0.00 | 0.00 | 0.00 | 89 | 1018.2 |
| 20260902020003 | 60 | 233 | 2.0 | 5.0 | 0.00 | 0.00 | 0.00 | 89 | 1018.3 |
| 20260902015503 | 60 | 244 | 2.0 | 5.0 | 0.00 | 0.00 | 0.00 | 89 | 1018.4 |
| 20260902014503 | 60 | 245 | 1.0 | 3.0 | 0.00 | 0.00 | 0.00 | 89 | 1018.6 |
| 20260902014003 | 60 | 246 | 2.0 | 3.0 | 0.00 | 0.00 | 0.00 | 89 | 1018.6 |
| 20260902013004 | 60 | 239 | 3.0 | 5.0 | 0.00 | 0.00 | 0.00 | 89 | 1018.7 |
| 20260902012504 | 60 | 230 | 0.0 | 3.0 | 0.00 | 0.00 | 0.00 | 89 | 1018.7 |
| 20260902012004 | 60 | 229 | 1.0 | 3.0 | 0.00 | 0.00 | 0.00 | 89 | 1018.7 |
| 20260902011504 | 60 | 228 | 1.0 | 3.0 | 0.00 | 0.00 | 0.00 | 89 | 1018.8 |
| 20260902011004 | 60 | 215 | 0.0 | 2.0 | 0.00 | 0.00 | 0.00 | 89 | 1018.8 |
| 20260902010504 | 60 | 215 | 0.0 | 0.0 | 0.00 | 0.00 | 0.00 | 89 | 1018.8 |
| 20260902005503 | 60 | 215 | 0.0 | 0.0 | 0.00 | 0.00 | 0.00 | 89 | 1019.0 |
| 20260902005003 | 60 | 215 | 0.0 | 0.0 | 0.00 | 0.00 | 0.00 | 89 | 1018.9 |
| 20260902004503 | 60 | 215 | 0.0 | 3.0 | 0.00 | 0.00 | 0.00 | 89 | 1018.9 |
| 20260902004003 | 60 | 215 | 1.0 | 3.0 | 0.00 | 0.00 | 0.00 | 89 | 1018.9 |
| 20260902003503 | 60 | 213 | 0.0 | 0.0 | 0.00 | 0.00 | 0.00 | 89 | 1018.9 |
| 20260902003003 | 60 | 212 | 0.0 | 0.0 | 0.00 | 0.00 | 0.00 | 89 | 1019.0 |
| 20260902002503 | 60 | 212 | 0.0 | 0.0 | 0.00 | 0.00 | 0.00 | 89 | 1019.0 |
| 20260902002004 | 60 | 212 | 0.0 | 0.0 | 0.00 | 0.00 | 0.00 | 89 | 1019.0 |
| 20260902001503 | 60 | 212 | 0.0 | 0.0 | 0.00 | 0.00 | 0.00 | 89 | 1019.1 |
| 20260902000504 | 60 | 212 | 0.0 | 0.0 | 0.00 | 0.00 | 0.00 | 90 | 1019.1 |
| 20260902000004 | 60 | 212 | 0.0 | 0.0 | 0.00 | 0.00 | 0.00 | 89 | 1019.1 |
| 20260901235004 | 60 | 211 | 0.0 | 0.0 | 0.00 | 0.00 | 0.00 | 89 | 1019.1 |
| 20260901234503 | 60 | 210 | 0.0 | 0.0 | 0.00 | 0.00 | 0.00 | 89 | 1019.1 |
| 20260901234003 | 60 | 210 | 0.0 | 0.0 | 0.00 | 0.00 | 0.00 | 89 | 1019.1 |
| 20260901233503 | 60 | 210 | 0.0 | 0.0 | 0.00 | 0.00 | 0.00 | 89 | 1019.2 |
| 20260901233003 | 60 | 210 | 0.0 | 0.0 | 0.00 | 0.00 | 0.00 | 89 | 1019.3 |
| 20260901232503 | 60 | 210 | 0.0 | 0.0 | 0.00 | 0.00 | 0.00 | 89 | 1019.3 |
| 20260901231503 | 60 | 210 | 1.0 | 3.0 | 0.00 | 0.00 | 0.00 | 89 | 1019.3 |
| 20260901231004 | 60 | 210 | 1.0 | 2.0 | 0.00 | 0.00 | 0.00 | 89 | 1019.4 |
| 20260901230503 | 60 | 210 | 1.0 | 3.0 | 0.00 | 0.00 | 0.00 | 89 | 1019.4 |
| 20260901230004 | 60 | 210 | 1.0 | 3.0 | 0.00 | 0.00 | 0.00 | 89 | 1019.3 |
| 20260901225504 | 60 | 210 | 0.0 | 0.0 | 0.00 | 0.00 | 0.00 | 89 | 1019.3 |
| 20260901225004 | 60 | 210 | 0.0 | 0.0 | 0.00 | 0.00 | 0.00 | 89 | 1019.2 |
| 20260901224504 | 60 | 210 | 0.0 | 0.0 | 0.00 | 0.00 | 0.00 | 89 | 1019.2 |
| 20260901224004 | 60 | 210 | 1.0 | 3.0 | 0.00 | 0.00 | 0.00 | 89 | 1019.2 |
| 20260901223503 | 60 | 210 | 1.0 | 3.0 | 0.00 | 0.00 | 0.00 | 89 | 1019.1 |
| 20260901222004 | 60 | 210 | 2.0 | 5.0 | 0.00 | 0.00 | 0.00 | 88 | 1019.1 |
| 20260901220003 | 60 | 199 | 1.0 | 2.0 | 0.00 | 0.00 | 0.00 | 88 | 1019.2 |
| 20260901215504 | 60 | 199 | 1.0 | 3.0 | 0.00 | 0.00 | 0.00 | 88 | 1019.3 |
| 20260901215004 | 60 | 198 | 0.0 | 3.0 | 0.00 | 0.00 | 0.00 | 88 | 1019.3 |
| 20260901214504 | 60 | 198 | 0.0 | 0.0 | 0.00 | 0.00 | 0.00 | 87 | 1019.3 |
| 20260901213504 | 60 | 198 | 0.0 | 0.0 | 0.00 | 0.00 | 0.00 | 87 | 1019.3 |
| 20260901213004 | 60 | 198 | 0.0 | 0.0 | 0.00 | 0.00 | 0.00 | 87 | 1019.4 |
| 20260901212503 | 60 | 198 | 0.0 | 0.0 | 0.00 | 0.00 | 0.00 | 87 | 1019.5 |
| 20260901212003 | 60 | 198 | 0.0 | 0.0 | 0.00 | 0.00 | 0.00 | 87 | 1019.5 |
| 20260901211003 | 60 | 198 | 0.0 | 0.0 | 0.00 | 0.00 | 0.00 | 86 | 1019.5 |
| 20260901210503 | 60 | 198 | 0.0 | 1.0 | 0.00 | 0.00 | 0.00 | 86 | 1019.5 |
| 20260901210004 | 60 | 198 | 1.0 | 2.0 | 0.00 | 0.00 | 0.00 | 86 | 1019.5 |
| 20260901205503 | 60 | 198 | 2.0 | 3.0 | 0.00 | 0.00 | 0.00 | 85 | 1019.5 |
| 20260901205004 | 60 | 198 | 0.0 | 1.0 | 0.00 | 0.00 | 0.00 | 85 | 1019.5 |
| 20260901204504 | 60 | 198 | 1.0 | 3.0 | 0.00 | 0.00 | 0.00 | 85 | 1019.5 |
| 20260901203504 | 60 | 197 | 0.0 | 2.0 | 0.00 | 0.00 | 0.00 | 85 | 1019.5 |
| 20260901203003 | 60 | 197 | 1.0 | 3.0 | 0.00 | 0.00 | 0.00 | 84 | 1019.5 |
| 20260901202503 | 60 | 197 | 2.0 | 3.0 | 0.00 | 0.00 | 0.00 | 84 | 1019.5 |
| 20260901202003 | 60 | 197 | 1.0 | 3.0 | 0.00 | 0.00 | 0.00 | 84 | 1019.4 |
| 20260901201503 | 60 | 197 | 2.0 | 3.0 | 0.00 | 0.00 | 0.00 | 83 | 1019.5 |
| 20260901201004 | 60 | 196 | 2.0 | 3.0 | 0.00 | 0.00 | 0.00 | 83 | 1019.5 |
| 20260901200004 | 61 | 272 | 0.0 | 3.0 | 0.00 | 0.00 | 0.00 | 82 | 1019.3 |
| 20260901195504 | 61 | 272 | 1.0 | 2.0 | 0.00 | 0.00 | 0.00 | 82 | 1019.4 |
| 20260901195004 | 61 | 272 | 0.0 | 0.0 | 0.00 | 0.00 | 0.00 | 82 | 1019.4 |
| 20260901194504 | 61 | 272 | 1.0 | 2.0 | 0.00 | 0.00 | 0.00 | 82 | 1019.4 |
| 20260901194004 | 61 | 273 | 1.0 | 3.0 | 0.00 | 0.00 | 0.00 | 81 | 1019.4 |
| 20260901193504 | 61 | 272 | 3.0 | 6.0 | 0.00 | 0.00 | 0.00 | 81 | 1019.4 |
| 20260901193004 | 62 | 265 | 2.0 | 3.0 | 0.00 | 0.00 | 0.00 | 80 | 1019.5 |
| 20260901192504 | 62 | 264 | 2.0 | 7.0 | 0.00 | 0.00 | 0.00 | 80 | 1019.3 |
| 20260901192004 | 62 | 280 | 4.0 | 7.0 | 0.00 | 0.00 | 0.00 | 80 | 1019.4 |
| 20260901191504 | 62 | 281 | 4.0 | 8.0 | 0.00 | 0.00 | 0.00 | 79 | 1019.4 |
| 20260901191004 | 62 | 279 | 5.0 | 9.0 | 0.00 | 0.00 | 0.00 | 78 | 1019.4 |
| 20260901190504 | 62 | 275 | 2.0 | 3.0 | 0.00 | 0.00 | 0.00 | 78 | 1019.3 |
| 20260901190003 | 62 | 281 | 2.0 | 3.0 | 0.00 | 0.00 | 0.00 | 78 | 1019.3 |
| 20260901185003 | 62 | 262 | 3.0 | 6.0 | 0.00 | 0.00 | 0.00 | 78 | 1019.3 |
| 20260901184504 | 62 | 265 | 3.0 | 6.0 | 0.00 | 0.00 | 0.00 | 79 | 1019.2 |
| 20260901184004 | 63 | 261 | 4.0 | 9.0 | 0.00 | 0.00 | 0.00 | 79 | 1019.2 |
| 20260901183503 | 63 | 253 | 5.0 | 9.0 | 0.00 | 0.00 | 0.00 | 79 | 1019.2 |
| 20260901183004 | 63 | 270 | 8.0 | 12.0 | 0.00 | 0.00 | 0.00 | 78 | 1019.2 |
| 20260901182503 | 63 | 234 | 6.0 | 12.0 | 0.00 | 0.00 | 0.00 | 77 | 1019.2 |
| 20260901182004 | 64 | 263 | 6.0 | 8.0 | 0.00 | 0.00 | 0.00 | 78 | 1019.2 |
| 20260901181503 | 64 | 260 | 4.0 | 9.0 | 0.00 | 0.00 | 0.00 | 77 | 1019.1 |
| 20260901181004 | 64 | 252 | 6.0 | 9.0 | 0.00 | 0.00 | 0.00 | 77 | 1019.2 |
| 20260901180003 | 64 | 268 | 6.0 | 12.0 | 0.00 | 0.00 | 0.00 | 76 | 1019.1 |
| 20260901175503 | 64 | 249 | 6.0 | 10.0 | 0.00 | 0.00 | 0.00 | 76 | 1019.2 |
| 20260901175004 | 64 | 267 | 6.0 | 8.0 | 0.00 | 0.00 | 0.00 | 75 | 1019.1 |
| 20260901174504 | 64 | 253 | 6.0 | 10.0 | 0.00 | 0.00 | 0.00 | 75 | 1019.1 |
| 20260901173503 | 65 | 234 | 7.0 | 13.0 | 0.00 | 0.00 | 0.00 | 73 | 1019.2 |
| 20260901172504 | 65 | 269 | 7.0 | 12.0 | 0.00 | 0.00 | 0.00 | 72 | 1019.4 |
| 20260901172004 | 65 | 265 | 7.0 | 13.0 | 0.00 | 0.00 | 0.00 | 72 | 1019.5 |
| 20260901171503 | 65 | 266 | 6.0 | 12.0 | 0.00 | 0.00 | 0.00 | 72 | 1019.5 |
| 20260901171004 | 65 | 259 | 8.0 | 12.0 | 0.00 | 0.00 | 0.00 | 71 | 1019.4 |
| 20260901170003 | 66 | 248 | 10.0 | 15.0 | 0.00 | 0.00 | 0.00 | 69 | 1019.4 |
| 20260901165504 | 66 | 273 | 9.0 | 13.0 | 0.00 | 0.00 | 0.00 | 68 | 1019.5 |
| 20260901164504 | 67 | 266 | 7.0 | 17.0 | 0.00 | 0.00 | 0.00 | 64 | 1019.3 |
| 20260901164004 | 67 | 266 | 9.0 | 16.0 | 0.00 | 0.00 | 0.00 | 64 | 1019.4 |
| 20260901163503 | 67 | 246 | 6.0 | 14.0 | 0.00 | 0.00 | 0.00 | 66 | 1019.3 |
| 20260901163004 | 67 | 282 | 9.0 | 17.0 | 0.00 | 0.00 | 0.00 | 66 | 1019.4 |
| 20260901162503 | 67 | 271 | 10.0 | 17.0 | 0.00 | 0.00 | 0.00 | 66 | 1019.3 |
| 20260901162003 | 67 | 273 | 10.0 | 14.0 | 0.00 | 0.00 | 0.00 | 66 | 1019.3 |
| 20260901161503 | 67 | 278 | 10.0 | 16.0 | 0.00 | 0.00 | 0.00 | 67 | 1019.3 |
| 20260901161004 | 67 | 282 | 10.0 | 16.0 | 0.00 | 0.00 | 0.00 | 68 | 1019.3 |
| 20260901160504 | 67 | 266 | 10.0 | 17.0 | 0.00 | 0.00 | 0.00 | 69 | 1019.5 |
| 20260901160004 | 67 | 280 | 10.0 | 16.0 | 0.00 | 0.00 | 0.00 | 67 | 1019.5 |
| 20260901154503 | 67 | 280 | 13.0 | 17.0 | 0.00 | 0.00 | 0.00 | 66 | 1019.4 |
| 20260901153504 | 69 | 292 | 10.0 | 17.0 | 0.00 | 0.00 | 0.00 | 64 | 1019.4 |
| 20260901152504 | 69 | 238 | 10.0 | 16.0 | 0.00 | 0.00 | 0.00 | 62 | 1019.5 |
| 20260901152003 | 70 | 254 | 7.0 | 17.0 | 0.00 | 0.00 | 0.00 | 62 | 1019.5 |
| 20260901151503 | 70 | 233 | 9.0 | 18.0 | 0.00 | 0.00 | 0.00 | 61 | 1019.4 |
| 20260901151003 | 70 | 277 | 11.0 | 20.0 | 0.00 | 0.00 | 0.00 | 61 | 1019.4 |
| 20260901150504 | 70 | 268 | 11.0 | 16.0 | 0.00 | 0.00 | 0.00 | 61 | 1019.5 |
| 20260901144504 | 70 | 250 | 9.0 | 14.0 | 0.00 | 0.00 | 0.00 | 64 | 1019.4 |
| 20260901144004 | 69 | 244 | 7.0 | 13.0 | 0.00 | 0.00 | 0.00 | 65 | 1019.4 |
| 20260901143504 | 68 | 269 | 10.0 | 16.0 | 0.00 | 0.00 | 0.00 | 65 | 1019.5 |
| 20260901143003 | 68 | 265 | 10.0 | 17.0 | 0.00 | 0.00 | 0.00 | 66 | 1019.5 |
| 20260901142503 | 68 | 285 | 10.0 | 16.0 | 0.00 | 0.00 | 0.00 | 66 | 1019.5 |
| 20260901142003 | 69 | 284 | 11.0 | 17.0 | 0.00 | 0.00 | 0.00 | 66 | 1019.5 |
| 20260901141504 | 68 | 271 | 12.0 | 16.0 | 0.00 | 0.00 | 0.00 | 69 | 1019.5 |
| 20260901141003 | 68 | 283 | 10.0 | 14.0 | 0.00 | 0.00 | 0.00 | 68 | 1019.5 |
| 20260901140004 | 68 | 248 | 9.0 | 14.0 | 0.00 | 0.00 | 0.00 | 67 | 1019.6 |
| 20260901135504 | 68 | 240 | 10.0 | 14.0 | 0.00 | 0.00 | 0.00 | 66 | 1019.6 |
| 20260901135004 | 68 | 247 | 10.0 | 18.0 | 0.00 | 0.00 | 0.00 | 66 | 1019.7 |
| 20260901134504 | 69 | 285 | 10.0 | 13.0 | 0.00 | 0.00 | 0.00 | 66 | 1019.7 |
| 20260901134004 | 69 | 285 | 9.0 | 14.0 | 0.00 | 0.00 | 0.00 | 65 | 1019.6 |
| 20260901133504 | 69 | 272 | 13.0 | 17.0 | 0.00 | 0.00 | 0.00 | 65 | 1019.7 |
| 20260901133003 | 69 | 261 | 9.0 | 13.0 | 0.00 | 0.00 | 0.00 | 66 | 1019.7 |
| 20260901132004 | 69 | 230 | 7.0 | 14.0 | 0.00 | 0.00 | 0.00 | 65 | 1019.6 |
| 20260901131004 | 68 | 237 | 9.0 | 17.0 | 0.00 | 0.00 | 0.00 | 66 | 1019.6 |
| 20260901130504 | 69 | 259 | 10.0 | 17.0 | 0.00 | 0.00 | 0.00 | 65 | 1019.7 |
| 20260901125504 | 69 | 271 | 9.0 | 16.0 | 0.00 | 0.00 | 0.00 | 66 | 1019.7 |
| 20260901124504 | 68 | 283 | 8.0 | 14.0 | 0.00 | 0.00 | 0.00 | 69 | 1019.8 |
| 20260901124004 | 68 | 226 | 8.0 | 13.0 | 0.00 | 0.00 | 0.00 | 68 | 1019.9 |
| 20260901123004 | 69 | 274 | 6.0 | 14.0 | 0.00 | 0.00 | 0.00 | 68 | 1019.8 |
| 20260901122504 | 69 | 233 | 9.0 | 16.0 | 0.00 | 0.00 | 0.00 | 67 | 1019.8 |
| 20260901122004 | 68 | 239 | 6.0 | 13.0 | 0.00 | 0.00 | 0.00 | 70 | 1019.8 |
| 20260901121004 | 66 | 281 | 9.0 | 13.0 | 0.00 | 0.00 | 0.00 | 74 | 1019.9 |
| 20260901120504 | 66 | 241 | 9.0 | 13.0 | 0.00 | 0.00 | 0.00 | 74 | 1019.9 |
| 20260901115504 | 66 | 284 | 10.0 | 20.0 | 0.00 | 0.00 | 0.00 | 72 | 1019.8 |
| 20260901115004 | 67 | 252 | 11.0 | 20.0 | 0.00 | 0.00 | 0.00 | 69 | 1019.8 |
| 20260901114504 | 68 | 232 | 9.0 | 18.0 | 0.00 | 0.00 | 0.00 | 69 | 1019.7 |
| 20260901114004 | 70 | 189 | 8.0 | 12.0 | 0.00 | 0.00 | 0.00 | 67 | 1019.7 |
| 20260901113504 | 70 | 183 | 6.0 | 13.0 | 0.00 | 0.00 | 0.00 | 71 | 1019.7 |
| 20260901112004 | 68 | 221 | 10.0 | 14.0 | 0.00 | 0.00 | 0.00 | 70 | 1019.9 |
| 20260901111504 | 68 | 203 | 8.0 | 14.0 | 0.00 | 0.00 | 0.00 | 71 | 1019.9 |
| 20260901111004 | 67 | 221 | 7.0 | 12.0 | 0.00 | 0.00 | 0.00 | 72 | 1019.9 |
| 20260901110004 | 66 | 245 | 6.0 | 10.0 | 0.00 | 0.00 | 0.00 | 70 | 1019.8 |
| 20260901105504 | 66 | 256 | 7.0 | 12.0 | 0.00 | 0.00 | 0.00 | 69 | 1019.8 |
| 20260901105004 | 66 | 259 | 9.0 | 13.0 | 0.00 | 0.00 | 0.00 | 68 | 1019.8 |
| 20260901104504 | 67 | 265 | 8.0 | 15.0 | 0.00 | 0.00 | 0.00 | 69 | 1020.0 |
| 20260901104004 | 67 | 246 | 8.0 | 15.0 | 0.00 | 0.00 | 0.00 | 69 | 1019.9 |
| 20260901103003 | 67 | 236 | 7.0 | 13.0 | 0.00 | 0.00 | 0.00 | 70 | 1019.9 |
| 20260901102504 | 67 | 285 | 6.0 | 10.0 | 0.00 | 0.00 | 0.00 | 71 | 1019.9 |
| 20260901102004 | 66 | 231 | 8.0 | 14.0 | 0.00 | 0.00 | 0.00 | 72 | 1020.0 |
| 20260901101504 | 65 | 253 | 6.0 | 10.0 | 0.00 | 0.00 | 0.00 | 75 | 1020.0 |
| 20260901100008 | 65 | 255 | 5.0 | 8.0 | 0.00 | 0.00 | 0.00 | 77 | 1020.2 |